This is the latest recevied weather packets stored in our database for station/object KM4KBD. If no packets are shown the sender has not sent any weather packets the latest 10 day(s).
| Time | Temp. | Humidity | Pressure | Rain* | Wind** | Luminosity | Snow |
|---|---|---|---|---|---|---|---|
| 1778158547 | 10.56° C | 74% | 1021.5 hPa | 0 mm | - | 59 W/m² | - |
| 1778158244 | 10.56° C | 73% | 1021.4 hPa | 0 mm | - | 57 W/m² | - |
| 1778157940 | 10° C | 74% | 1021.4 hPa | 0 mm | - | 59 W/m² | - |
| 1778157639 | 10° C | 75% | 1021.5 hPa | 0 mm | - | 55 W/m² | - |
| 1778157336 | 10° C | 77% | 1021.5 hPa | 0 mm | - | 56 W/m² | - |
| 1778157033 | 10° C | 77% | 1021.4 hPa | 0 mm | - | 58 W/m² | - |
| 1778156728 | 10° C | 77% | 1021.8 hPa | 0 mm | - | 52 W/m² | - |
| 1778156424 | 9.44° C | 78% | 1021.4 hPa | 0 mm | - | 51 W/m² | - |
| 1778156120 | 9.44° C | 80% | 1021.5 hPa | 0 mm | - | 49 W/m² | - |
| 1778155816 | 9.44° C | 81% | 1021.4 hPa | 0 mm | - | 55 W/m² | - |
| 1778155512 | 8.89° C | 84% | 1021.3 hPa | 0 mm | - | 45 W/m² | - |
| 1778155210 | 8.89° C | 84% | 1021.5 hPa | 0 mm | - | 45 W/m² | - |
| 1778154906 | 8.33° C | 85% | 1021.2 hPa | 0 mm | - | 43 W/m² | - |
| 1778154601 | 8.33° C | 86% | 1021.4 hPa | 0 mm | - | 42 W/m² | - |
| 1778154297 | 7.78° C | 87% | 1021.5 hPa | 0 mm | - | 41 W/m² | - |
| 1778153995 | 7.78° C | 88% | 1021.3 hPa | 0 mm | - | 39 W/m² | - |
| 1778153692 | 7.78° C | 88% | 1021.3 hPa | 0 mm | - | 36 W/m² | - |
| 1778153389 | 7.78° C | 89% | 1021.1 hPa | 0 mm | - | 33 W/m² | - |
| 1778153087 | 7.78° C | 89% | 1021.1 hPa | 0 mm | - | 27 W/m² | - |
| 1778152783 | 7.78° C | 89% | 1021 hPa | 0 mm | - | 26 W/m² | - |
| 1778152481 | 7.78° C | 89% | 1020.9 hPa | 0 mm | - | 24 W/m² | - |
| 1778152177 | 7.22° C | 90% | 1020.9 hPa | 0 mm | - | 21 W/m² | - |
| 1778151873 | 7.22° C | 90% | 1021 hPa | 0 mm | - | 19 W/m² | - |
| 1778151570 | 7.22° C | 90% | 1020.9 hPa | 0 mm | - | 16 W/m² | - |
| 1778151267 | 7.22° C | 91% | 1020.8 hPa | 0 mm | - | 14 W/m² | - |
* Rain latest hour (hover to see other rain measurements)
** Current wind speed in m/s (hover to see current wind gust speed)